Wind_Speed
9 9 10 10 10 10 10 10 10 10 9 9 9 13 17 20 23 23 19 17 14 12 10 6 6 4 7 8 7 8 7 12 9 7 7 8 4 3 3 7 4 1 2 6 7
9 9 9 10 10 10 10 9 9 8 7 7 9 12 15 20 21 26 22 20 17 14 11 8 5 2 4 7 8 8 10 11 8 8 5 8 8 3 4 10 7 1 0 6 9
10 10 10 10 10 11 11 10 8 8 7 6 7 10 13 17 20 26 25 22 19 16 13 11 6 3 1 5 6 8 13 10 5 8 6 5 9 4 5 8 6 3 1 6 12
11 11 11 11 11 11 11 10 9 8 7 6 5 7 12 15 18 25 27 24 21 18 16 14 11 8 3 5 4 7 6 9 4 7 4 4 5 5 7 8 9 6 6 5 11
12 12 12 12 12 12 12 11 10 8 8 7 6 5 10 16 19 22 27 27 24 21 19 15 14 13 6 3 1 5 3 6 5 6 8 7 4 4 3 6 9 10 9 11 12
12 12 12 12 12 12 13 12 11 9 9 7 7 6 8 12 21 19 27 31 27 22 20 15 15 14 9 3 4 5 3 5 4 7 9 9 7 5 3 5 6 8 11 13 13
13 13 13 13 12 12 14 12 11 10 9 8 8 7 7 12 18 21 28 31 29 25 22 16 15 14 12 5 4 4 2 2 3 5 6 10 10 7 8 1 5 7 11 14 16
15 14 13 13 12 13 14 11 11 10 10 9 9 6 8 10 14 23 25 30 30 28 24 19 16 15 13 9 4 2 3 3 7 4 4 8 11 11 10 6 3 7 8 10 14
13 14 14 13 12 13 13 11 10 9 10 9 9 9 9 11 15 20 24 27 29 31 26 22 20 18 17 12 5 2 6 4 5 3 6 9 15 14 15 11 6 3 7 10 10
11 11 12 12 11 12 11 10 9 8 9 9 9 8 10 12 13 17 26 25 27 28 27 24 23 21 20 14 5 2 2 4 8 7 9 11 13 14 17 14 12 7 4 8 10
11 10 10 10 10 9 9 8 8 8 8 10 6 13 9 13 13 17 23 27 23 26 26 26 25 24 22 20 13 9 5 5 5 9 9 7 13 11 10 9 9 11 5 8 9
11 10 10 8 8 8 7 6 6 6 6 8 11 10 12 14 13 14 20 24 27 22 23 23 24 25 25 23 18 14 10 8 3 10 8 7 13 7 10 12 10 8 10 8 11
10 9 9 7 7 6 5 4 5 4 2 1 4 9 15 12 12 11 15 19 21 24 22 22 18 23 25 25 22 19 14 12 12 12 8 11 10 8 11 17 16 13 12 13 12
9 8 8 6 6 6 4 2 3 1 3 3 2 5 12 12 11 10 10 10 12 16 21 20 22 17 27 26 23 18 19 17 13 11 5 8 8 14 10 12 15 12 14 12 14
8 7 7 7 6 6 4 2 0 4 2 4 6 7 10 14 7 12 11 10 5 6 16 13 19 24 20 28 27 17 19 16 13 11 7 6 7 8 10 11 15 15 9 14 13
8 6 7 7 6 7 5 4 3 2 3 3 5 6 11 12 8 7 15 13 8 5 5 12 9 14 24 13 16 17 16 12 11 10 8 7 6 10 10 11 10 11 9 12 13
9 6 7 6 5 8 8 6 2 2 4 4 3 5 8 17 7 5 13 17 8 7 9 9 18 16 12 19 18 17 12 11 8 6 7 6 6 15 18 11 11 10 8 10 14
10 8 6 6 6 10 10 9 3 4 6 1 4 6 6 5 12 10 8 14 14 10 4 3 5 17 19 22 14 18 16 13 9 8 7 8 5 10 15 10 14 15 13 14 16
11 8 6 6 8 12 13 9 3 7 5 5 9 10 11 3 5 9 8 8 8 10 9 4 4 7 17 20 20 15 15 15 9 6 4 6 12 17 15 15 16 16 13 11 17
10 7 6 7 10 14 14 8 6 8 4 5 5 9 12 7 9 6 4 2 3 10 13 7 5 3 8 19 20 15 12 10 8 5 7 5 9 16 17 16 13 14 14 16 15
8 6 6 8 11 14 12 11 9 9 4 6 8 11 11 10 9 5 4 6 3 1 10 17 12 2 11 13 16 19 13 10 8 7 8 9 12 15 15 19 18 12 13 12 19
6 5 7 8 12 13 11 11 11 9 8 6 6 9 9 11 8 6 8 6 8 4 5 14 6 10 12 13 12 18 17 17 10 8 8 10 19 20 19 21 20 11 9 6 9
5 6 9 10 9 11 11 10 9 10 10 8 8 8 8 9 6 8 5 4 4 7 3 7 9 6 5 9 15 16 18 18 17 14 12 14 19 21 19 21 21 22 10 9 8
5 6 11 11 10 11 9 8 9 10 10 11 10 9 7 7 8 8 5 3 0 1 5 5 8 9 9 8 14 17 16 16 13 7 9 14 19 18 14 23 23 18 17 11 10
7 9 10 10 14 11 8 10 12 10 10 10 9 8 8 8 9 8 7 6 4 4 3 3 3 7 12 14 15 15 13 15 15 13 9 9 12 8 12 16 19 17 10 13 10
8 11 11 12 9 13 10 10 13 10 12 10 8 7 7 9 10 9 10 10 8 6 5 5 4 9 10 12 14 17 17 16 11 13 13 14 14 14 12 18 15 10 15 11 5
9 11 13 13 13 11 13 11 13 12 10 10 9 7 5 4 7 10 12 10 10 8 7 8 9 10 8 8 6 9 17 19 15 12 12 17 17 14 16 18 15 17 10 8 9
Wind_Direction
277 275 278 279 278 278 280 282 282 282 270 255 231 212 205 201 200 195 193 190 194 189 182 188 170 26 30 10 342 322 342 330 328 348 353 30 31 19 6 351 350 355 36 167 198
280 281 280 280 280 279 278 279 281 282 278 257 232 218 208 203 201 199 196 191 195 196 194 202 196 102 21 21 34 30 20 348 323 324 343 36 53 62 18 10 39 69 151 158 177
284 282 282 280 281 282 279 277 274 275 277 270 238 218 207 203 200 203 199 195 196 202 200 214 220 189 22 3 48 28 12 349 321 295 296 23 47 65 59 44 76 90 201 152 160
285 281 280 279 279 278 279 279 275 272 270 266 252 220 207 195 197 205 202 200 201 205 207 215 222 234 289 359 50 26 5 355 328 287 289 346 33 55 75 65 81 102 126 141 151
290 286 282 276 274 276 276 275 274 272 266 260 250 229 209 198 198 197 202 204 206 208 210 222 222 233 262 6 334 4 332 341 295 308 318 333 346 29 77 94 76 84 104 136 144
291 291 290 286 279 273 270 270 270 266 265 258 252 234 216 203 201 196 200 205 209 210 216 223 227 237 249 291 21 12 266 347 302 289 301 317 307 343 323 122 118 86 106 133 152
291 292 291 289 287 282 272 268 268 265 262 259 256 241 221 211 203 197 201 205 209 211 220 223 229 238 250 270 359 38 101 19 319 277 272 303 310 333 327 170 128 102 127 134 147
285 288 291 288 287 282 276 274 269 269 263 254 249 238 217 215 201 201 202 205 208 213 222 223 226 239 250 252 336 117 94 286 328 301 282 293 314 316 344 297 172 96 143 148 150
292 283 283 287 286 279 282 280 271 268 264 255 243 227 217 211 203 198 199 204 208 214 223 226 227 234 242 252 285 74 60 65 30 93 343 319 310 322 315 321 291 185 120 158 177
308 296 285 280 281 279 286 288 275 263 259 253 238 221 212 205 205 200 199 203 208 212 221 226 228 232 237 246 242 217 54 38 16 344 325 331 325 317 315 303 295 263 156 154 163
313 307 293 282 277 283 285 280 282 278 261 242 198 204 201 194 198 197 194 202 204 212 217 223 225 223 221 242 248 253 275 313 8 15 335 337 337 315 298 301 299 274 231 166 172
309 312 305 293 273 278 284 277 280 274 264 246 223 205 209 195 193 197 196 202 208 212 216 220 225 227 224 241 244 246 258 280 251 342 318 337 335 296 346 321 293 267 255 202 191
306 304 300 292 264 268 275 276 278 280 324 147 217 198 206 197 193 193 197 207 213 213 216 220 226 219 224 236 239 244 251 273 298 321 321 307 319 324 316 323 314 273 234 224 201
305 300 298 291 255 252 270 290 266 296 111 72 112 165 191 181 183 193 192 197 217 224 225 229 220 223 222 232 238 244 248 266 277 316 304 304 293 315 301 327 332 297 249 231 210
310 300 291 279 250 232 236 232 195 134 112 87 66 144 164 167 175 199 196 202 198 211 208 214 221 222 220 228 233 242 252 254 261 296 291 270 269 285 308 309 316 306 258 229 220
309 317 286 263 245 220 211 191 128 141 94 121 92 108 161 167 160 184 205 203 199 203 210 204 201 218 229 217 224 222 234 240 264 277 243 237 246 269 315 326 333 310 244 219 220
294 305 282 267 240 206 200 179 176 170 139 123 166 129 141 182 165 118 194 196 189 189 224 229 225 212 191 199 210 207 207 220 226 222 245 250 242 269 296 285 318 322 230 213 217
295 286 274 268 226 198 191 183 201 161 141 89 205 166 134 163 202 223 226 211 213 210 218 214 233 225 214 210 206 215 209 221 227 227 245 234 239 283 288 269 307 305 261 230 210
293 284 268 235 210 192 189 188 178 156 102 117 113 149 161 106 168 190 221 247 242 230 213 220 258 249 221 217 208 213 208 222 232 253 270 246 262 276 287 274 306 302 250 261 238
293 278 254 216 199 189 189 190 170 164 109 108 118 133 137 148 138 149 200 47 255 263 243 249 263 286 204 197 210 216 219 195 209 201 238 223 242 259 294 293 312 301 283 254 231
289 262 232 204 190 188 193 198 190 187 164 124 113 122 127 139 156 121 121 80 79 159 202 231 238 250 190 200 199 211 225 225 213 211 250 257 256 272 285 305 307 307 306 234 230
274 229 215 197 180 188 193 199 200 208 217 175 134 129 133 148 153 135 115 92 49 37 214 220 228 239 239 232 222 225 227 229 226 228 227 253 264 276 278 296 298 305 306 262 244
259 216 201 191 181 183 193 204 201 200 210 190 168 166 169 161 146 149 132 119 52 41 80 187 217 235 251 239 230 237 237 233 248 251 243 251 272 282 279 293 292 295 299 291 240
242 201 196 193 191 190 191 196 182 193 191 182 179 186 176 178 182 182 148 178 219 329 15 209 228 233 257 240 218 224 234 223 217 221 258 256 271 267 279 287 278 281 294 297 245
245 226 210 214 211 199 196 182 178 171 183 177 173 185 195 195 197 213 215 219 250 273 275 40 274 282 276 269 254 231 245 242 229 232 234 279 278 283 279 287 268 276 270 280 255
248 230 222 225 221 214 213 203 177 161 169 173 156 174 177 200 210 214 229 237 241 226 254 266 273 293 300 273 262 245 248 236 241 235 261 280 290 269 262 279 274 259 274 278 240
257 241 227 227 224 211 219 215 196 176 175 176 169 157 160 195 214 221 225 236 236 231 248 253 263 271 272 276 259 243 229 233 237 258 289 274 277 288 261 261 248 270 278 263 230
Height
3163 3163 3163 3163 3163 3163 3163 3163 3163 3163 3164 3165 3166 3168 3170 3172 3174 3178 3181 3184 3185 3185 3187 3188 3190 3189 3188 3187 3185 3184 3186 3184 3182 3181 3181 3181 3181 3180 3180 3179 3178 3178 3178 3179 3179
3161 3161 3161 3161 3161 3161 3161 3161 3161 3161 3161 3162 3163 3165 3167 3169 3172 3175 3180 3182 3184 3185 3186 3188 3189 3191 3189 3188 3186 3185 3185 3184 3184 3182 3182 3182 3182 3181 3182 3180 3179 3178 3178 3178 3180
3159 3159 3159 3159 3158 3158 3158 3159 3159 3159 3159 3160 3161 3162 3164 3167 3171 3172 3176 3180 3182 3184 3186 3187 3189 3191 3190 3189 3187 3186 3185 3184 3184 3183 3182 3183 3182 3182 3182 3181 3179 3178 3177 3178 3180
3157 3157 3156 3156 3156 3156 3156 3156 3157 3157 3157 3158 3158 3159 3162 3164 3170 3169 3173 3177 3180 3183 3185 3186 3188 3190 3191 3190 3188 3187 3186 3185 3185 3184 3183 3183 3183 3183 3182 3182 3180 3179 3178 3179 3181
3154 3154 3154 3154 3154 3153 3153 3154 3154 3155 3155 3156 3156 3157 3159 3162 3164 3166 3170 3175 3178 3181 3184 3186 3187 3189 3190 3190 3189 3188 3187 3186 3185 3184 3184 3183 3184 3184 3183 3183 3181 3180 3179 3181 3182
3151 3151 3151 3151 3151 3151 3151 3151 3152 3152 3153 3154 3154 3156 3157 3160 3161 3164 3168 3172 3175 3179 3182 3185 3187 3189 3190 3190 3189 3188 3187 3186 3185 3184 3184 3184 3184 3184 3185 3184 3184 3182 3181 3182 3184
3148 3148 3148 3147 3147 3147 3147 3148 3149 3149 3150 3151 3152 3153 3155 3157 3159 3162 3165 3169 3173 3177 3180 3183 3185 3188 3188 3189 3189 3187 3187 3186 3185 3184 3185 3185 3184 3184 3184 3185 3185 3184 3183 3183 3184
3145 3145 3145 3144 3144 3144 3143 3145 3146 3147 3148 3148 3150 3151 3152 3154 3156 3159 3162 3166 3171 3174 3178 3180 3183 3185 3186 3188 3189 3188 3187 3186 3185 3185 3185 3186 3184 3185 3184 3185 3186 3186 3185 3185 3186
3142 3142 3141 3141 3141 3141 3141 3142 3143 3144 3145 3145 3147 3149 3150 3151 3153 3155 3159 3163 3167 3171 3174 3178 3181 3183 3185 3186 3188 3188 3187 3186 3185 3184 3185 3186 3183 3183 3183 3184 3185 3186 3185 3186 3186
3139 3138 3138 3138 3138 3138 3140 3140 3140 3141 3142 3143 3144 3148 3148 3149 3151 3154 3157 3160 3164 3168 3172 3175 3178 3180 3182 3185 3187 3187 3187 3187 3185 3185 3184 3183 3181 3181 3181 3181 3183 3184 3185 3185 3186
3137 3136 3135 3135 3135 3136 3138 3138 3140 3140 3139 3140 3141 3142 3144 3146 3148 3151 3154 3158 3162 3165 3169 3171 3175 3176 3181 3182 3184 3185 3186 3187 3186 3184 3183 3182 3180 3180 3178 3178 3179 3181 3183 3184 3185
3134 3133 3132 3132 3132 3133 3135 3135 3136 3137 3137 3136 3138 3140 3142 3144 3147 3149 3154 3157 3159 3162 3165 3169 3170 3175 3179 3180 3182 3183 3184 3185 3185 3184 3182 3180 3179 3177 3177 3176 3176 3178 3180 3182 3182
3132 3131 3130 3130 3130 3131 3132 3133 3133 3133 3135 3136 3135 3137 3140 3144 3146 3148 3152 3154 3157 3160 3163 3165 3169 3171 3174 3176 3178 3180 3182 3183 3184 3182 3180 3178 3177 3176 3175 3174 3173 3174 3176 3177 3178
3130 3129 3129 3128 3130 3129 3130 3131 3131 3132 3134 3136 3135 3136 3138 3142 3146 3148 3150 3155 3155 3158 3161 3163 3166 3167 3170 3172 3175 3178 3179 3180 3180 3180 3180 3178 3176 3174 3174 3173 3171 3170 3171 3173 3175
3127 3127 3126 3126 3127 3128 3130 3130 3131 3132 3134 3138 3136 3136 3138 3143 3145 3147 3149 3152 3154 3156 3159 3160 3162 3164 3166 3168 3172 3176 3176 3178 3178 3178 3177 3176 3177 3173 3172 3171 3169 3167 3167 3169 3171
3125 3125 3124 3124 3125 3127 3128 3129 3131 3135 3134 3136 3136 3136 3139 3141 3144 3145 3148 3151 3154 3155 3156 3158 3159 3160 3162 3167 3169 3172 3174 3175 3175 3175 3175 3174 3175 3170 3170 3169 3167 3164 3164 3165 3168
3123 3123 3122 3122 3124 3125 3127 3130 3133 3132 3135 3136 3135 3136 3138 3141 3143 3144 3146 3149 3152 3154 3155 3156 3156 3157 3159 3163 3165 3168 3171 3172 3173 3171 3169 3170 3172 3167 3167 3166 3165 3164 3163 3164 3166
3120 3121 3120 3121 3122 3124 3126 3131 3131 3131 3132 3133 3134 3136 3138 3140 3142 3144 3146 3148 3149 3151 3153 3154 3154 3153 3155 3158 3163 3165 3168 3168 3168 3166 3166 3168 3168 3165 3163 3163 3163 3162 3162 3161 3162
3117 3118 3118 3119 3120 3122 3126 3129 3129 3130 3132 3132 3133 3135 3137 3139 3140 3143 3145 3146 3147 3149 3152 3151 3151 3150 3151 3156 3161 3162 3163 3166 3166 3164 3167 3165 3165 3162 3161 3161 3160 3158 3158 3160 3160
3115 3115 3116 3117 3118 3121 3125 3127 3128 3130 3131 3132 3132 3134 3136 3138 3140 3142 3143 3144 3144 3145 3148 3150 3151 3150 3151 3153 3156 3158 3159 3162 3161 3162 3164 3162 3161 3158 3159 3157 3157 3155 3154 3157 3158
3113 3113 3114 3115 3117 3121 3123 3125 3127 3128 3130 3132 3132 3133 3135 3137 3139 3140 3142 3144 3143 3143 3144 3146 3150 3151 3151 3151 3153 3155 3155 3157 3157 3158 3156 3157 3157 3156 3156 3154 3154 3153 3151 3151 3154
3111 3112 3113 3114 3118 3118 3121 3123 3125 3127 3128 3130 3132 3133 3134 3136 3138 3139 3141 3142 3141 3141 3141 3143 3146 3147 3149 3149 3150 3151 3152 3153 3153 3155 3155 3155 3154 3154 3154 3151 3151 3151 3150 3150 3151
3109 3111 3112 3114 3116 3117 3119 3121 3123 3125 3127 3129 3131 3132 3133 3134 3137 3138 3140 3141 3141 3140 3140 3141 3142 3145 3145 3148 3147 3147 3148 3149 3150 3150 3150 3152 3150 3150 3149 3147 3146 3147 3147 3147 3149
3109 3110 3111 3113 3115 3117 3118 3120 3122 3124 3126 3128 3129 3131 3132 3133 3135 3136 3138 3140 3140 3140 3139 3139 3139 3140 3141 3142 3143 3144 3144 3145 3146 3147 3146 3146 3146 3145 3145 3144 3142 3143 3143 3143 3146
3107 3108 3110 3111 3113 3115 3118 3119 3120 3122 3124 3126 3128 3129 3130 3132 3133 3134 3136 3137 3138 3139 3138 3139 3138 3138 3137 3137 3138 3139 3140 3141 3142 3142 3143 3143 3142 3141 3142 3141 3139 3138 3139 3140 3142
3105 3106 3108 3109 3111 3113 3115 3117 3119 3121 3123 3125 3126 3127 3128 3130 3131 3132 3133 3135 3136 3137 3137 3137 3137 3135 3134 3132 3133 3134 3135 3137 3139 3139 3139 3139 3138 3138 3139 3137 3136 3136 3137 3137 3139
3102 3103 3105 3106 3108 3111 3113 3115 3117 3119 3121 3122 3124 3125 3126 3127 3127 3128 3130 3131 3132 3134 3134 3135 3134 3134 3132 3131 3129 3130 3130 3132 3134 3135 3135 3135 3136 3135 3135 3134 3133 3133 3134 3135 3135